Погода в Гурьевске

Россия / Калининградская область     54°46′23″N   20°35′15″E
темп.,
°C
ветер,
м/с
пор.,
м/с
влажн.,
%
обл.,
%
осадки,
мм/ч
давл.,
гПа
погр.,
м
2 марта, вт
вт223:00+3з6139311 0.0 1029382
02:00+3з613929 0.0 1029373
05:00+3з6149243 0.0 1028428
08:00+3зсз5129341 0.0 1028370
11:00+6сз597929 0.0 1029470
14:00+7сз577358 0.0 1030520
17:00+6ссз47750 0.0 1030392
20:00+2ссз35862 0.0 1032124
3 марта, ср
ср323:00+1ссз11850 0.0 103222
02:00+1зюз227812 0.0 103322
05:000зюз238633 0.0 103036
08:000юз339117 0.0 103076
11:00+5юз57790 0.0 1027422
14:00+6зюз58681 0.0 1025428
17:00+6зюз410662 0.0 1022378
20:00+3зюз47841 0.0 1019151
4 марта, чт
чт423:00+3зюз410880 0.0 1016191
02:00+3зюз512931 0.0 1013322
05:00+4з7119380 0.0 1011508
08:00+2з5109483 0.0 1011360
11:00+3ссз5891100 0.1 1011513
14:00+3с6967100 0.1 1012825
17:00+2с6964100 0.0 10131105
20:000с4117667 0.0 1014458
5 марта, пт
пт523:00−1с387843 0.0 1015286
02:00−1с247336 0.0 1016115
05:00−2сз12730 0.0 101621
08:00−1с257339 0.1 1018169
11:00+1св345247 0.0 10191101
14:00+2ссз344124 0.0 10201313
17:00−1сз588753 0.2 1020586
20:00−2ссз4107162 0.5 1022363
6 марта, сб
сб623:00−2ссз257454 0.1 1024173
02:00−3с127472 0.1 102638
05:00−3зюз007384 0.0 102723
08:00−2юз127077 0.0 102745
11:00+1з574978 0.1 10271625
14:00+2з795173 0.1 10251459
17:00+2зюз7125527 0.0 10231277
20:00+1зюз8157461 0.0 1020964